Data supplied by UK-AIR on 5/4/2008
All Data GMT hour ending 
Status: R =Ratified P=Provisional,P*=As supplied
,,Glasgow City Chambers,,,,,,,,,,,,,,,,,,,,,,,
Date,time,"Carbon monoxide",status,unit,"Nitric oxide",status,unit,"Nitrogen dioxide",status,unit,"Nitrogen oxides as nitrogen dioxide",status,unit
 
01-01-1990,01:00,1.2,R,mgm-3,48,R,ugm-3,34,R,ugm-3,107,R,ugm-3
01-01-1990,02:00,1.3,R,mgm-3,48,R,ugm-3,34,R,ugm-3,107,R,ugm-3
01-01-1990,03:00,1.7,R,mgm-3,84,R,ugm-3,38,R,ugm-3,166,R,ugm-3
01-01-1990,04:00,1.0,R,mgm-3,54,R,ugm-3,34,R,ugm-3,117,R,ugm-3
01-01-1990,05:00,1.0,R,mgm-3,49,R,ugm-3,32,R,ugm-3,107,R,ugm-3
01-01-1990,06:00,0.7,R,mgm-3,35,R,ugm-3,31,R,ugm-3,84,R,ugm-3
01-01-1990,07:00,0.7,R,mgm-3,30,R,ugm-3,32,R,ugm-3,78,R,ugm-3
01-01-1990,08:00,0.7,R,mgm-3,34,R,ugm-3,34,R,ugm-3,86,R,ugm-3
01-01-1990,09:00,0.7,R,mgm-3,31,R,ugm-3,34,R,ugm-3,82,R,ugm-3
01-01-1990,10:00,0.6,R,mgm-3,33,R,ugm-3,32,R,ugm-3,82,R,ugm-3
01-01-1990,11:00,0.7,R,mgm-3,41,R,ugm-3,34,R,ugm-3,97,R,ugm-3
01-01-1990,12:00,0.8,R,mgm-3,48,R,ugm-3,34,R,ugm-3,107,R,ugm-3
01-01-1990,13:00,0.9,R,mgm-3,61,R,ugm-3,34,R,ugm-3,128,R,ugm-3
01-01-1990,14:00,1.7,R,mgm-3,100,R,ugm-3,36,R,ugm-3,189,R,ugm-3
01-01-1990,15:00,2.4,R,mgm-3,173,R,ugm-3,34,R,ugm-3,298,R,ugm-3
01-01-1990,16:00,2.6,R,mgm-3,168,R,ugm-3,31,R,ugm-3,287,R,ugm-3
01-01-1990,17:00,2.4,R,mgm-3,129,R,ugm-3,31,R,ugm-3,227,R,ugm-3
01-01-1990,18:00,3.5,R,mgm-3,254,R,ugm-3,32,R,ugm-3,420,R,ugm-3
01-01-1990,19:00,2.8,R,mgm-3,169,R,ugm-3,31,R,ugm-3,288,R,ugm-3
01-01-1990,20:00,3.5,R,mgm-3,211,R,ugm-3,29,R,ugm-3,351,R,ugm-3
01-01-1990,21:00,3.6,R,mgm-3,201,R,ugm-3,27,R,ugm-3,334,R,ugm-3
01-01-1990,22:00,3.0,R,mgm-3,191,R,ugm-3,29,R,ugm-3,321,R,ugm-3
01-01-1990,23:00,5.8,R,mgm-3,259,R,ugm-3,27,R,ugm-3,422,R,ugm-3
01-01-1990,24:00,2.8,R,mgm-3,158,R,ugm-3,34,R,ugm-3,275,R,ugm-3
02-01-1990,01:00,2.2,R,mgm-3,176,R,ugm-3,38,R,ugm-3,308,R,ugm-3
02-01-1990,02:00,1.7,R,mgm-3,131,R,ugm-3,40,R,ugm-3,241,R,ugm-3
02-01-1990,03:00,1.3,R,mgm-3,78,R,ugm-3,42,R,ugm-3,160,R,ugm-3
02-01-1990,04:00,1.0,R,mgm-3,59,R,ugm-3,44,R,ugm-3,134,R,ugm-3
02-01-1990,05:00,0.7,R,mgm-3,78,R,ugm-3,42,R,ugm-3,160,R,ugm-3
02-01-1990,06:00,0.3,R,mgm-3,19,R,ugm-3,36,R,ugm-3,65,R,ugm-3
02-01-1990,07:00,0.3,R,mgm-3,11,R,ugm-3,31,R,ugm-3,48,R,ugm-3
02-01-1990,08:00,0.3,R,mgm-3,18,R,ugm-3,34,R,ugm-3,61,R,ugm-3
02-01-1990,09:00,0.6,R,mgm-3,43,R,ugm-3,46,R,ugm-3,111,R,ugm-3
02-01-1990,10:00,,,,93,R,ugm-3,53,R,ugm-3,195,R,ugm-3
02-01-1990,11:00,,,,101,R,ugm-3,40,R,ugm-3,195,R,ugm-3
02-01-1990,12:00,,,,175,R,ugm-3,65,R,ugm-3,332,R,ugm-3
02-01-1990,13:00,,,,183,R,ugm-3,59,R,ugm-3,338,R,ugm-3
02-01-1990,14:00,,,,175,R,ugm-3,82,R,ugm-3,350,R,ugm-3
02-01-1990,15:00,,,,175,R,ugm-3,53,R,ugm-3,321,R,ugm-3
02-01-1990,16:00,,,,,,,,,,,,
02-01-1990,17:00,2.4,R,mgm-3,88,R,ugm-3,52,R,ugm-3,185,R,ugm-3
02-01-1990,18:00,2.8,R,mgm-3,141,R,ugm-3,53,R,ugm-3,269,R,ugm-3
02-01-1990,19:00,1.7,R,mgm-3,89,R,ugm-3,50,R,ugm-3,185,R,ugm-3
02-01-1990,20:00,2.1,R,mgm-3,161,R,ugm-3,50,R,ugm-3,296,R,ugm-3
02-01-1990,21:00,3.7,R,mgm-3,286,R,ugm-3,46,R,ugm-3,483,R,ugm-3
02-01-1990,22:00,2.8,R,mgm-3,250,R,ugm-3,46,R,ugm-3,428,R,ugm-3
02-01-1990,23:00,2.1,R,mgm-3,143,R,ugm-3,46,R,ugm-3,264,R,ugm-3
02-01-1990,24:00,1.6,R,mgm-3,148,R,ugm-3,44,R,ugm-3,269,R,ugm-3
03-01-1990,01:00,1.9,R,mgm-3,128,R,ugm-3,42,R,ugm-3,237,R,ugm-3
03-01-1990,02:00,1.3,R,mgm-3,101,R,ugm-3,46,R,ugm-3,201,R,ugm-3
03-01-1990,03:00,1.0,R,mgm-3,81,R,ugm-3,46,R,ugm-3,170,R,ugm-3
03-01-1990,04:00,0.8,R,mgm-3,58,R,ugm-3,40,R,ugm-3,128,R,ugm-3
03-01-1990,05:00,0.8,R,mgm-3,65,R,ugm-3,44,R,ugm-3,143,R,ugm-3
03-01-1990,06:00,0.9,R,mgm-3,80,R,ugm-3,40,R,ugm-3,162,R,ugm-3
03-01-1990,07:00,1.2,R,mgm-3,116,R,ugm-3,46,R,ugm-3,223,R,ugm-3
03-01-1990,08:00,1.6,R,mgm-3,120,R,ugm-3,48,R,ugm-3,231,R,ugm-3
03-01-1990,09:00,4.6,R,mgm-3,298,R,ugm-3,44,R,ugm-3,499,R,ugm-3
03-01-1990,10:00,3.4,R,mgm-3,255,R,ugm-3,44,R,ugm-3,434,R,ugm-3
03-01-1990,11:00,3.8,R,mgm-3,265,R,ugm-3,48,R,ugm-3,453,R,ugm-3
03-01-1990,12:00,4.3,R,mgm-3,313,R,ugm-3,44,R,ugm-3,521,R,ugm-3
03-01-1990,13:00,5.9,R,mgm-3,375,R,ugm-3,52,R,ugm-3,625,R,ugm-3
03-01-1990,14:00,8.1,R,mgm-3,519,R,ugm-3,57,R,ugm-3,850,R,ugm-3
03-01-1990,15:00,6.7,R,mgm-3,346,R,ugm-3,57,R,ugm-3,586,R,ugm-3
03-01-1990,16:00,2.3,R,mgm-3,78,R,ugm-3,46,R,ugm-3,164,R,ugm-3
03-01-1990,17:00,3.4,R,mgm-3,135,R,ugm-3,42,R,ugm-3,248,R,ugm-3
03-01-1990,18:00,5.2,R,mgm-3,221,R,ugm-3,44,R,ugm-3,382,R,ugm-3
03-01-1990,19:00,2.8,R,mgm-3,144,R,ugm-3,42,R,ugm-3,262,R,ugm-3
03-01-1990,20:00,2.1,R,mgm-3,123,R,ugm-3,44,R,ugm-3,231,R,ugm-3
03-01-1990,21:00,2.3,R,mgm-3,168,R,ugm-3,42,R,ugm-3,298,R,ugm-3
03-01-1990,22:00,2.6,R,mgm-3,185,R,ugm-3,42,R,ugm-3,325,R,ugm-3
03-01-1990,23:00,2.3,R,mgm-3,189,R,ugm-3,42,R,ugm-3,330,R,ugm-3
03-01-1990,24:00,1.5,R,mgm-3,119,R,ugm-3,48,R,ugm-3,229,R,ugm-3
04-01-1990,01:00,1.2,R,mgm-3,45,R,ugm-3,46,R,ugm-3,115,R,ugm-3
04-01-1990,02:00,0.5,R,mgm-3,29,R,ugm-3,40,R,ugm-3,84,R,ugm-3
04-01-1990,03:00,0.3,R,mgm-3,15,R,ugm-3,36,R,ugm-3,59,R,ugm-3
04-01-1990,04:00,0.2,R,mgm-3,11,R,ugm-3,36,R,ugm-3,53,R,ugm-3
04-01-1990,05:00,0.6,R,mgm-3,31,R,ugm-3,40,R,ugm-3,88,R,ugm-3
04-01-1990,06:00,0.6,R,mgm-3,40,R,ugm-3,44,R,ugm-3,105,R,ugm-3
04-01-1990,07:00,1.2,R,mgm-3,113,R,ugm-3,44,R,ugm-3,216,R,ugm-3
04-01-1990,08:00,2.2,R,mgm-3,199,R,ugm-3,44,R,ugm-3,348,R,ugm-3
04-01-1990,09:00,5.9,R,mgm-3,329,R,ugm-3,46,R,ugm-3,548,R,ugm-3
04-01-1990,10:00,4.5,R,mgm-3,308,R,ugm-3,44,R,ugm-3,514,R,ugm-3
04-01-1990,11:00,,,,266,R,ugm-3,46,R,ugm-3,453,R,ugm-3
04-01-1990,12:00,,,,270,R,ugm-3,57,R,ugm-3,470,R,ugm-3
04-01-1990,13:00,,,,273,R,ugm-3,63,R,ugm-3,479,R,ugm-3
04-01-1990,14:00,,,,280,R,ugm-3,78,R,ugm-3,506,R,ugm-3
04-01-1990,15:00,,,,235,R,ugm-3,44,R,ugm-3,403,R,ugm-3
04-01-1990,16:00,,,,,,,,,,,,
04-01-1990,17:00,,,,,,,,,,,,
04-01-1990,18:00,2.4,R,mgm-3,131,R,ugm-3,53,R,ugm-3,254,R,ugm-3
04-01-1990,19:00,1.7,R,mgm-3,65,R,ugm-3,53,R,ugm-3,153,R,ugm-3
04-01-1990,20:00,0.9,R,mgm-3,26,R,ugm-3,42,R,ugm-3,82,R,ugm-3
04-01-1990,21:00,0.6,R,mgm-3,16,R,ugm-3,31,R,ugm-3,55,R,ugm-3
04-01-1990,22:00,0.9,R,mgm-3,25,R,ugm-3,36,R,ugm-3,74,R,ugm-3
04-01-1990,23:00,0.2,R,mgm-3,14,R,ugm-3,25,R,ugm-3,46,R,ugm-3
04-01-1990,24:00,0.1,R,mgm-3,10,R,ugm-3,21,R,ugm-3,36,R,ugm-3
05-01-1990,01:00,0.5,R,mgm-3,8,R,ugm-3,15,R,ugm-3,27,R,ugm-3
05-01-1990,02:00,0.3,R,mgm-3,8,R,ugm-3,10,R,ugm-3,21,R,ugm-3
05-01-1990,03:00,0.3,R,mgm-3,9,R,ugm-3,10,R,ugm-3,23,R,ugm-3
05-01-1990,04:00,0.5,R,mgm-3,8,R,ugm-3,11,R,ugm-3,23,R,ugm-3
05-01-1990,05:00,0.5,R,mgm-3,9,R,ugm-3,19,R,ugm-3,32,R,ugm-3
05-01-1990,06:00,0.6,R,mgm-3,11,R,ugm-3,27,R,ugm-3,44,R,ugm-3
05-01-1990,07:00,0.8,R,mgm-3,29,R,ugm-3,44,R,ugm-3,88,R,ugm-3
05-01-1990,08:00,2.2,R,mgm-3,156,R,ugm-3,53,R,ugm-3,292,R,ugm-3
05-01-1990,09:00,5.8,R,mgm-3,338,R,ugm-3,50,R,ugm-3,565,R,ugm-3
05-01-1990,10:00,6.8,R,mgm-3,438,R,ugm-3,61,R,ugm-3,730,R,ugm-3
05-01-1990,11:00,4.5,R,mgm-3,323,R,ugm-3,55,R,ugm-3,548,R,ugm-3
05-01-1990,12:00,4.1,R,mgm-3,259,R,ugm-3,59,R,ugm-3,455,R,ugm-3
05-01-1990,13:00,3.8,R,mgm-3,183,R,ugm-3,57,R,ugm-3,336,R,ugm-3
05-01-1990,14:00,4.1,R,mgm-3,194,R,ugm-3,53,R,ugm-3,350,R,ugm-3
05-01-1990,15:00,5.1,R,mgm-3,240,R,ugm-3,57,R,ugm-3,424,R,ugm-3
05-01-1990,16:00,4.5,R,mgm-3,179,R,ugm-3,48,R,ugm-3,321,R,ugm-3
05-01-1990,17:00,,,,,,,,,,,,
05-01-1990,18:00,,,,,,,,,,,,
05-01-1990,19:00,,,,,,,,,,,,
05-01-1990,20:00,,,,,,,,,,,,
05-01-1990,21:00,0.8,R,mgm-3,21,R,ugm-3,32,R,ugm-3,65,R,ugm-3
05-01-1990,22:00,0.7,R,mgm-3,16,R,ugm-3,32,R,ugm-3,57,R,ugm-3
05-01-1990,23:00,0.6,R,mgm-3,15,R,ugm-3,32,R,ugm-3,55,R,ugm-3
05-01-1990,24:00,0.7,R,mgm-3,13,R,ugm-3,31,R,ugm-3,50,R,ugm-3
06-01-1990,01:00,0.6,R,mgm-3,13,R,ugm-3,32,R,ugm-3,52,R,ugm-3
06-01-1990,02:00,0.6,R,mgm-3,11,R,ugm-3,27,R,ugm-3,44,R,ugm-3
06-01-1990,03:00,0.5,R,mgm-3,10,R,ugm-3,27,R,ugm-3,42,R,ugm-3
06-01-1990,04:00,0.2,R,mgm-3,8,R,ugm-3,13,R,ugm-3,25,R,ugm-3
06-01-1990,05:00,0.1,R,mgm-3,6,R,ugm-3,13,R,ugm-3,23,R,ugm-3
06-01-1990,06:00,0.1,R,mgm-3,6,R,ugm-3,8,R,ugm-3,17,R,ugm-3
06-01-1990,07:00,0.3,R,mgm-3,6,R,ugm-3,23,R,ugm-3,32,R,ugm-3
06-01-1990,08:00,0.5,R,mgm-3,14,R,ugm-3,36,R,ugm-3,57,R,ugm-3
06-01-1990,09:00,0.7,R,mgm-3,15,R,ugm-3,34,R,ugm-3,57,R,ugm-3
06-01-1990,10:00,0.9,R,mgm-3,24,R,ugm-3,50,R,ugm-3,86,R,ugm-3
06-01-1990,11:00,1.2,R,mgm-3,39,R,ugm-3,52,R,ugm-3,111,R,ugm-3
06-01-1990,12:00,1.0,R,mgm-3,44,R,ugm-3,48,R,ugm-3,115,R,ugm-3
06-01-1990,13:00,1.4,R,mgm-3,46,R,ugm-3,50,R,ugm-3,120,R,ugm-3
06-01-1990,14:00,1.4,R,mgm-3,44,R,ugm-3,46,R,ugm-3,113,R,ugm-3
06-01-1990,15:00,1.5,R,mgm-3,31,R,ugm-3,42,R,ugm-3,90,R,ugm-3
06-01-1990,16:00,1.5,R,mgm-3,30,R,ugm-3,42,R,ugm-3,88,R,ugm-3
06-01-1990,17:00,1.9,R,mgm-3,46,R,ugm-3,52,R,ugm-3,122,R,ugm-3
06-01-1990,18:00,2.1,R,mgm-3,64,R,ugm-3,57,R,ugm-3,155,R,ugm-3
06-01-1990,19:00,1.5,R,mgm-3,46,R,ugm-3,53,R,ugm-3,124,R,ugm-3
06-01-1990,20:00,1.0,R,mgm-3,34,R,ugm-3,52,R,ugm-3,103,R,ugm-3
06-01-1990,21:00,0.9,R,mgm-3,25,R,ugm-3,48,R,ugm-3,86,R,ugm-3
06-01-1990,22:00,1.2,R,mgm-3,30,R,ugm-3,52,R,ugm-3,97,R,ugm-3
06-01-1990,23:00,1.3,R,mgm-3,31,R,ugm-3,48,R,ugm-3,96,R,ugm-3
06-01-1990,24:00,0.7,R,mgm-3,13,R,ugm-3,31,R,ugm-3,50,R,ugm-3
07-01-1990,01:00,0.6,R,mgm-3,9,R,ugm-3,23,R,ugm-3,36,R,ugm-3
07-01-1990,02:00,0.5,R,mgm-3,9,R,ugm-3,21,R,ugm-3,34,R,ugm-3
07-01-1990,03:00,0.3,R,mgm-3,10,R,ugm-3,15,R,ugm-3,31,R,ugm-3
07-01-1990,04:00,0.2,R,mgm-3,5,R,ugm-3,13,R,ugm-3,21,R,ugm-3
07-01-1990,05:00,0.2,R,mgm-3,5,R,ugm-3,10,R,ugm-3,17,R,ugm-3
07-01-1990,06:00,0.1,R,mgm-3,4,R,ugm-3,6,R,ugm-3,11,R,ugm-3
07-01-1990,07:00,0.1,R,mgm-3,4,R,ugm-3,6,R,ugm-3,11,R,ugm-3
07-01-1990,08:00,0.1,R,mgm-3,4,R,ugm-3,6,R,ugm-3,11,R,ugm-3
07-01-1990,09:00,0.2,R,mgm-3,4,R,ugm-3,10,R,ugm-3,15,R,ugm-3
07-01-1990,10:00,0.2,R,mgm-3,5,R,ugm-3,10,R,ugm-3,17,R,ugm-3
07-01-1990,11:00,0.3,R,mgm-3,6,R,ugm-3,15,R,ugm-3,25,R,ugm-3
07-01-1990,12:00,0.5,R,mgm-3,8,R,ugm-3,21,R,ugm-3,32,R,ugm-3
07-01-1990,13:00,0.6,R,mgm-3,10,R,ugm-3,25,R,ugm-3,40,R,ugm-3
07-01-1990,14:00,0.7,R,mgm-3,14,R,ugm-3,27,R,ugm-3,48,R,ugm-3
07-01-1990,15:00,0.8,R,mgm-3,16,R,ugm-3,31,R,ugm-3,55,R,ugm-3
07-01-1990,16:00,1.3,R,mgm-3,34,R,ugm-3,48,R,ugm-3,99,R,ugm-3
07-01-1990,17:00,1.9,R,mgm-3,56,R,ugm-3,55,R,ugm-3,141,R,ugm-3
07-01-1990,18:00,1.7,R,mgm-3,70,R,ugm-3,57,R,ugm-3,164,R,ugm-3
07-01-1990,19:00,1.6,R,mgm-3,66,R,ugm-3,59,R,ugm-3,160,R,ugm-3
07-01-1990,20:00,1.6,R,mgm-3,64,R,ugm-3,53,R,ugm-3,151,R,ugm-3
07-01-1990,21:00,1.4,R,mgm-3,55,R,ugm-3,55,R,ugm-3,139,R,ugm-3
07-01-1990,22:00,1.5,R,mgm-3,70,R,ugm-3,57,R,ugm-3,164,R,ugm-3
07-01-1990,23:00,1.4,R,mgm-3,79,R,ugm-3,52,R,ugm-3,172,R,ugm-3
07-01-1990,24:00,1.7,R,mgm-3,93,R,ugm-3,52,R,ugm-3,193,R,ugm-3
08-01-1990,01:00,1.0,R,mgm-3,45,R,ugm-3,52,R,ugm-3,120,R,ugm-3
08-01-1990,02:00,0.9,R,mgm-3,45,R,ugm-3,52,R,ugm-3,120,R,ugm-3
08-01-1990,03:00,0.9,R,mgm-3,39,R,ugm-3,48,R,ugm-3,107,R,ugm-3
08-01-1990,04:00,0.6,R,mgm-3,10,R,ugm-3,42,R,ugm-3,57,R,ugm-3
08-01-1990,05:00,0.6,R,mgm-3,16,R,ugm-3,46,R,ugm-3,71,R,ugm-3
08-01-1990,06:00,0.7,R,mgm-3,39,R,ugm-3,50,R,ugm-3,109,R,ugm-3
08-01-1990,07:00,0.7,R,mgm-3,44,R,ugm-3,52,R,ugm-3,118,R,ugm-3
08-01-1990,08:00,2.7,R,mgm-3,160,R,ugm-3,55,R,ugm-3,300,R,ugm-3
08-01-1990,09:00,5.6,R,mgm-3,338,R,ugm-3,59,R,ugm-3,575,R,ugm-3
08-01-1990,10:00,4.9,R,mgm-3,255,R,ugm-3,61,R,ugm-3,451,R,ugm-3
08-01-1990,11:00,2.1,R,mgm-3,110,R,ugm-3,57,R,ugm-3,225,R,ugm-3
08-01-1990,12:00,1.5,R,mgm-3,61,R,ugm-3,53,R,ugm-3,147,R,ugm-3
08-01-1990,13:00,1.9,R,mgm-3,66,R,ugm-3,57,R,ugm-3,159,R,ugm-3
08-01-1990,14:00,1.3,R,mgm-3,36,R,ugm-3,44,R,ugm-3,99,R,ugm-3
08-01-1990,15:00,1.3,R,mgm-3,,,,,,,,,
08-01-1990,16:00,1.2,R,mgm-3,,,,,,,,,
08-01-1990,17:00,1.4,R,mgm-3,31,R,ugm-3,42,R,ugm-3,90,R,ugm-3
08-01-1990,18:00,1.5,R,mgm-3,28,R,ugm-3,42,R,ugm-3,84,R,ugm-3
08-01-1990,19:00,0.7,R,mgm-3,14,R,ugm-3,31,R,ugm-3,52,R,ugm-3
08-01-1990,20:00,0.7,R,mgm-3,10,R,ugm-3,27,R,ugm-3,42,R,ugm-3
08-01-1990,21:00,0.5,R,mgm-3,10,R,ugm-3,15,R,ugm-3,31,R,ugm-3
08-01-1990,22:00,0.5,R,mgm-3,9,R,ugm-3,23,R,ugm-3,36,R,ugm-3
08-01-1990,23:00,0.3,R,mgm-3,9,R,ugm-3,15,R,ugm-3,29,R,ugm-3
08-01-1990,24:00,0.3,R,mgm-3,8,R,ugm-3,13,R,ugm-3,25,R,ugm-3
09-01-1990,01:00,0.3,R,mgm-3,6,R,ugm-3,13,R,ugm-3,23,R,ugm-3
09-01-1990,02:00,0.3,R,mgm-3,5,R,ugm-3,13,R,ugm-3,21,R,ugm-3
09-01-1990,03:00,0.1,R,mgm-3,4,R,ugm-3,10,R,ugm-3,15,R,ugm-3
09-01-1990,04:00,0.1,R,mgm-3,4,R,ugm-3,6,R,ugm-3,11,R,ugm-3
09-01-1990,05:00,0.1,R,mgm-3,5,R,ugm-3,6,R,ugm-3,13,R,ugm-3
09-01-1990,06:00,0.3,R,mgm-3,6,R,ugm-3,15,R,ugm-3,25,R,ugm-3
09-01-1990,07:00,0.6,R,mgm-3,14,R,ugm-3,32,R,ugm-3,53,R,ugm-3
09-01-1990,08:00,1.0,R,mgm-3,39,R,ugm-3,53,R,ugm-3,113,R,ugm-3
09-01-1990,09:00,1.7,R,mgm-3,65,R,ugm-3,61,R,ugm-3,160,R,ugm-3
09-01-1990,10:00,1.5,R,mgm-3,58,R,ugm-3,63,R,ugm-3,151,R,ugm-3
09-01-1990,11:00,1.4,R,mgm-3,50,R,ugm-3,59,R,ugm-3,136,R,ugm-3
09-01-1990,12:00,1.4,R,mgm-3,55,R,ugm-3,55,R,ugm-3,139,R,ugm-3
09-01-1990,13:00,1.0,R,mgm-3,35,R,ugm-3,46,R,ugm-3,99,R,ugm-3
09-01-1990,14:00,1.2,R,mgm-3,34,R,ugm-3,48,R,ugm-3,99,R,ugm-3
09-01-1990,15:00,1.2,R,mgm-3,34,R,ugm-3,48,R,ugm-3,99,R,ugm-3
09-01-1990,16:00,1.2,R,mgm-3,35,R,ugm-3,48,R,ugm-3,101,R,ugm-3
09-01-1990,17:00,1.6,R,mgm-3,39,R,ugm-3,53,R,ugm-3,113,R,ugm-3
09-01-1990,18:00,2.1,R,mgm-3,48,R,ugm-3,53,R,ugm-3,126,R,ugm-3
09-01-1990,19:00,1.4,R,mgm-3,43,R,ugm-3,55,R,ugm-3,120,R,ugm-3
09-01-1990,20:00,0.9,R,mgm-3,23,R,ugm-3,48,R,ugm-3,82,R,ugm-3
09-01-1990,21:00,0.7,R,mgm-3,14,R,ugm-3,31,R,ugm-3,52,R,ugm-3
09-01-1990,22:00,0.6,R,mgm-3,11,R,ugm-3,31,R,ugm-3,48,R,ugm-3
09-01-1990,23:00,0.5,R,mgm-3,9,R,ugm-3,21,R,ugm-3,34,R,ugm-3
09-01-1990,24:00,0.3,R,mgm-3,6,R,ugm-3,19,R,ugm-3,29,R,ugm-3
10-01-1990,01:00,0.2,R,mgm-3,6,R,ugm-3,13,R,ugm-3,23,R,ugm-3
10-01-1990,02:00,0.1,R,mgm-3,5,R,ugm-3,10,R,ugm-3,17,R,ugm-3
10-01-1990,03:00,0.1,R,mgm-3,5,R,ugm-3,10,R,ugm-3,17,R,ugm-3
10-01-1990,04:00,0.1,R,mgm-3,4,R,ugm-3,6,R,ugm-3,11,R,ugm-3
10-01-1990,05:00,0.1,R,mgm-3,5,R,ugm-3,0,R,ugm-3,8,R,ugm-3
10-01-1990,06:00,0.1,R,mgm-3,4,R,ugm-3,6,R,ugm-3,11,R,ugm-3
10-01-1990,07:00,0.1,R,mgm-3,6,R,ugm-3,10,R,ugm-3,19,R,ugm-3
10-01-1990,08:00,0.5,R,mgm-3,13,R,ugm-3,19,R,ugm-3,38,R,ugm-3
10-01-1990,09:00,1.3,R,mgm-3,38,R,ugm-3,44,R,ugm-3,101,R,ugm-3
10-01-1990,10:00,1.3,R,mgm-3,43,R,ugm-3,57,R,ugm-3,122,R,ugm-3
10-01-1990,11:00,1.3,R,mgm-3,41,R,ugm-3,57,R,ugm-3,120,R,ugm-3
10-01-1990,12:00,1.4,R,mgm-3,51,R,ugm-3,63,R,ugm-3,141,R,ugm-3
10-01-1990,13:00,1.3,R,mgm-3,41,R,ugm-3,53,R,ugm-3,117,R,ugm-3
10-01-1990,14:00,1.4,R,mgm-3,43,R,ugm-3,52,R,ugm-3,117,R,ugm-3
10-01-1990,15:00,1.2,R,mgm-3,31,R,ugm-3,52,R,ugm-3,99,R,ugm-3
10-01-1990,16:00,1.0,R,mgm-3,26,R,ugm-3,46,R,ugm-3,86,R,ugm-3
10-01-1990,17:00,1.3,R,mgm-3,28,R,ugm-3,44,R,ugm-3,86,R,ugm-3
10-01-1990,18:00,1.4,R,mgm-3,29,R,ugm-3,42,R,ugm-3,86,R,ugm-3
10-01-1990,19:00,0.8,R,mgm-3,16,R,ugm-3,36,R,ugm-3,61,R,ugm-3
10-01-1990,20:00,0.6,R,mgm-3,13,R,ugm-3,29,R,ugm-3,48,R,ugm-3
10-01-1990,21:00,0.5,R,mgm-3,11,R,ugm-3,23,R,ugm-3,40,R,ugm-3
10-01-1990,22:00,0.3,R,mgm-3,10,R,ugm-3,25,R,ugm-3,40,R,ugm-3
10-01-1990,23:00,0.3,R,mgm-3,9,R,ugm-3,25,R,ugm-3,38,R,ugm-3
10-01-1990,24:00,0.3,R,mgm-3,8,R,ugm-3,25,R,ugm-3,36,R,ugm-3
11-01-1990,01:00,0.3,R,mgm-3,6,R,ugm-3,17,R,ugm-3,27,R,ugm-3
11-01-1990,02:00,0.2,R,mgm-3,5,R,ugm-3,13,R,ugm-3,21,R,ugm-3
11-01-1990,03:00,0.2,R,mgm-3,5,R,ugm-3,15,R,ugm-3,23,R,ugm-3
11-01-1990,04:00,0.1,R,mgm-3,4,R,ugm-3,13,R,ugm-3,19,R,ugm-3
11-01-1990,05:00,0.1,R,mgm-3,4,R,ugm-3,15,R,ugm-3,21,R,ugm-3
11-01-1990,06:00,0.1,R,mgm-3,6,R,ugm-3,15,R,ugm-3,25,R,ugm-3
11-01-1990,07:00,0.1,R,mgm-3,9,R,ugm-3,25,R,ugm-3,38,R,ugm-3
11-01-1990,08:00,0.6,R,mgm-3,23,R,ugm-3,38,R,ugm-3,73,R,ugm-3
11-01-1990,09:00,1.5,R,mgm-3,44,R,ugm-3,48,R,ugm-3,115,R,ugm-3
11-01-1990,10:00,1.2,R,mgm-3,33,R,ugm-3,48,R,ugm-3,97,R,ugm-3
11-01-1990,11:00,0.9,R,mgm-3,24,R,ugm-3,44,R,ugm-3,80,R,ugm-3
11-01-1990,12:00,0.8,R,mgm-3,24,R,ugm-3,36,R,ugm-3,73,R,ugm-3
11-01-1990,13:00,0.8,R,mgm-3,23,R,ugm-3,36,R,ugm-3,71,R,ugm-3
11-01-1990,14:00,0.7,R,mgm-3,16,R,ugm-3,29,R,ugm-3,53,R,ugm-3
11-01-1990,15:00,0.7,R,mgm-3,,,,,,,,,
11-01-1990,16:00,0.7,R,mgm-3,13,R,ugm-3,31,R,ugm-3,50,R,ugm-3
11-01-1990,17:00,0.9,R,mgm-3,16,R,ugm-3,31,R,ugm-3,55,R,ugm-3
11-01-1990,18:00,1.0,R,mgm-3,20,R,ugm-3,34,R,ugm-3,65,R,ugm-3
11-01-1990,19:00,0.6,R,mgm-3,11,R,ugm-3,23,R,ugm-3,40,R,ugm-3
11-01-1990,20:00,0.5,R,mgm-3,9,R,ugm-3,25,R,ugm-3,38,R,ugm-3
11-01-1990,21:00,0.3,R,mgm-3,10,R,ugm-3,19,R,ugm-3,34,R,ugm-3
11-01-1990,22:00,0.2,R,mgm-3,6,R,ugm-3,13,R,ugm-3,23,R,ugm-3
11-01-1990,23:00,0.1,R,mgm-3,8,R,ugm-3,11,R,ugm-3,23,R,ugm-3
11-01-1990,24:00,0.1,R,mgm-3,5,R,ugm-3,13,R,ugm-3,21,R,ugm-3
12-01-1990,01:00,0.1,R,mgm-3,4,R,ugm-3,4,R,ugm-3,10,R,ugm-3
12-01-1990,02:00,0.1,R,mgm-3,4,R,ugm-3,4,R,ugm-3,10,R,ugm-3
12-01-1990,03:00,0.0,R,mgm-3,4,R,ugm-3,0,R,ugm-3,6,R,ugm-3
12-01-1990,04:00,0.1,R,mgm-3,4,R,ugm-3,0,R,ugm-3,6,R,ugm-3
12-01-1990,05:00,0.0,R,mgm-3,4,R,ugm-3,4,R,ugm-3,10,R,ugm-3
12-01-1990,06:00,0.1,R,mgm-3,4,R,ugm-3,8,R,ugm-3,13,R,ugm-3
12-01-1990,07:00,0.1,R,mgm-3,6,R,ugm-3,15,R,ugm-3,25,R,ugm-3
12-01-1990,08:00,0.5,R,mgm-3,19,R,ugm-3,34,R,ugm-3,63,R,ugm-3
12-01-1990,09:00,1.3,R,mgm-3,46,R,ugm-3,50,R,ugm-3,120,R,ugm-3
12-01-1990,10:00,1.0,R,mgm-3,46,R,ugm-3,52,R,ugm-3,122,R,ugm-3
12-01-1990,11:00,0.8,R,mgm-3,25,R,ugm-3,38,R,ugm-3,76,R,ugm-3
12-01-1990,12:00,0.8,R,mgm-3,28,R,ugm-3,36,R,ugm-3,78,R,ugm-3
12-01-1990,13:00,0.8,R,mgm-3,29,R,ugm-3,36,R,ugm-3,80,R,ugm-3
12-01-1990,14:00,0.8,R,mgm-3,29,R,ugm-3,38,R,ugm-3,82,R,ugm-3
12-01-1990,15:00,1.0,R,mgm-3,,,,,,,,,
12-01-1990,16:00,1.2,R,mgm-3,46,R,ugm-3,53,R,ugm-3,124,R,ugm-3
12-01-1990,17:00,1.7,R,mgm-3,59,R,ugm-3,57,R,ugm-3,147,R,ugm-3
12-01-1990,18:00,2.1,R,mgm-3,58,R,ugm-3,61,R,ugm-3,149,R,ugm-3
12-01-1990,19:00,1.3,R,mgm-3,41,R,ugm-3,55,R,ugm-3,118,R,ugm-3
12-01-1990,20:00,1.2,R,mgm-3,29,R,ugm-3,53,R,ugm-3,97,R,ugm-3
12-01-1990,21:00,0.7,R,mgm-3,16,R,ugm-3,44,R,ugm-3,69,R,ugm-3
12-01-1990,22:00,1.0,R,mgm-3,29,R,ugm-3,53,R,ugm-3,97,R,ugm-3
12-01-1990,23:00,1.0,R,mgm-3,33,R,ugm-3,55,R,ugm-3,105,R,ugm-3
12-01-1990,24:00,0.7,R,mgm-3,23,R,ugm-3,46,R,ugm-3,80,R,ugm-3
13-01-1990,01:00,0.9,R,mgm-3,23,R,ugm-3,48,R,ugm-3,82,R,ugm-3
13-01-1990,02:00,0.5,R,mgm-3,11,R,ugm-3,42,R,ugm-3,59,R,ugm-3
13-01-1990,03:00,0.5,R,mgm-3,15,R,ugm-3,38,R,ugm-3,61,R,ugm-3
13-01-1990,04:00,0.2,R,mgm-3,9,R,ugm-3,29,R,ugm-3,42,R,ugm-3
13-01-1990,05:00,0.5,R,mgm-3,14,R,ugm-3,40,R,ugm-3,61,R,ugm-3
13-01-1990,06:00,0.3,R,mgm-3,21,R,ugm-3,42,R,ugm-3,74,R,ugm-3
13-01-1990,07:00,0.3,R,mgm-3,11,R,ugm-3,42,R,ugm-3,59,R,ugm-3
13-01-1990,08:00,0.6,R,mgm-3,31,R,ugm-3,46,R,ugm-3,94,R,ugm-3
13-01-1990,09:00,0.7,R,mgm-3,21,R,ugm-3,42,R,ugm-3,74,R,ugm-3
13-01-1990,10:00,0.9,R,mgm-3,33,R,ugm-3,46,R,ugm-3,96,R,ugm-3
13-01-1990,11:00,0.9,R,mgm-3,29,R,ugm-3,44,R,ugm-3,88,R,ugm-3
13-01-1990,12:00,1.2,R,mgm-3,36,R,ugm-3,42,R,ugm-3,97,R,ugm-3
13-01-1990,13:00,1.2,R,mgm-3,38,R,ugm-3,44,R,ugm-3,101,R,ugm-3
13-01-1990,14:00,1.0,R,mgm-3,29,R,ugm-3,36,R,ugm-3,80,R,ugm-3
13-01-1990,15:00,1.5,R,mgm-3,,,,,,,,,
13-01-1990,16:00,1.5,R,mgm-3,31,R,ugm-3,48,R,ugm-3,96,R,ugm-3
13-01-1990,17:00,1.0,R,mgm-3,24,R,ugm-3,42,R,ugm-3,78,R,ugm-3
13-01-1990,18:00,1.3,R,mgm-3,24,R,ugm-3,46,R,ugm-3,82,R,ugm-3
13-01-1990,19:00,0.8,R,mgm-3,15,R,ugm-3,36,R,ugm-3,59,R,ugm-3
13-01-1990,20:00,0.6,R,mgm-3,14,R,ugm-3,34,R,ugm-3,55,R,ugm-3
13-01-1990,21:00,0.3,R,mgm-3,9,R,ugm-3,27,R,ugm-3,40,R,ugm-3
13-01-1990,22:00,0.5,R,mgm-3,9,R,ugm-3,23,R,ugm-3,36,R,ugm-3
13-01-1990,23:00,0.2,R,mgm-3,8,R,ugm-3,21,R,ugm-3,32,R,ugm-3
13-01-1990,24:00,0.2,R,mgm-3,6,R,ugm-3,13,R,ugm-3,23,R,ugm-3
14-01-1990,01:00,0.2,R,mgm-3,5,R,ugm-3,11,R,ugm-3,19,R,ugm-3
14-01-1990,02:00,0.1,R,mgm-3,5,R,ugm-3,8,R,ugm-3,15,R,ugm-3
14-01-1990,03:00,0.1,R,mgm-3,5,R,ugm-3,10,R,ugm-3,17,R,ugm-3
14-01-1990,04:00,0.1,R,mgm-3,4,R,ugm-3,11,R,ugm-3,17,R,ugm-3
14-01-1990,05:00,0.1,R,mgm-3,5,R,ugm-3,10,R,ugm-3,17,R,ugm-3
14-01-1990,06:00,0.1,R,mgm-3,4,R,ugm-3,6,R,ugm-3,11,R,ugm-3
14-01-1990,07:00,0.1,R,mgm-3,4,R,ugm-3,8,R,ugm-3,13,R,ugm-3
14-01-1990,08:00,0.1,R,mgm-3,4,R,ugm-3,13,R,ugm-3,19,R,ugm-3
14-01-1990,09:00,0.2,R,mgm-3,6,R,ugm-3,23,R,ugm-3,32,R,ugm-3
14-01-1990,10:00,0.2,R,mgm-3,8,R,ugm-3,19,R,ugm-3,31,R,ugm-3
14-01-1990,11:00,0.2,R,mgm-3,10,R,ugm-3,21,R,ugm-3,36,R,ugm-3
14-01-1990,12:00,0.3,R,mgm-3,10,R,ugm-3,25,R,ugm-3,40,R,ugm-3
14-01-1990,13:00,0.5,R,mgm-3,13,R,ugm-3,25,R,ugm-3,44,R,ugm-3
14-01-1990,14:00,0.6,R,mgm-3,15,R,ugm-3,27,R,ugm-3,50,R,ugm-3
14-01-1990,15:00,0.8,R,mgm-3,,,,,,,,,
14-01-1990,16:00,0.7,R,mgm-3,16,R,ugm-3,36,R,ugm-3,61,R,ugm-3
14-01-1990,17:00,0.6,R,mgm-3,13,R,ugm-3,27,R,ugm-3,46,R,ugm-3
14-01-1990,18:00,0.5,R,mgm-3,10,R,ugm-3,25,R,ugm-3,40,R,ugm-3
14-01-1990,19:00,0.5,R,mgm-3,9,R,ugm-3,25,R,ugm-3,38,R,ugm-3
14-01-1990,20:00,0.3,R,mgm-3,9,R,ugm-3,23,R,ugm-3,36,R,ugm-3
14-01-1990,21:00,0.3,R,mgm-3,8,R,ugm-3,15,R,ugm-3,27,R,ugm-3
14-01-1990,22:00,0.2,R,mgm-3,5,R,ugm-3,15,R,ugm-3,23,R,ugm-3
14-01-1990,23:00,0.5,R,mgm-3,6,R,ugm-3,11,R,ugm-3,21,R,ugm-3
14-01-1990,24:00,0.2,R,mgm-3,5,R,ugm-3,11,R,ugm-3,19,R,ugm-3
15-01-1990,01:00,0.1,R,mgm-3,5,R,ugm-3,6,R,ugm-3,13,R,ugm-3
15-01-1990,02:00,0.1,R,mgm-3,4,R,ugm-3,6,R,ugm-3,11,R,ugm-3
15-01-1990,03:00,0.1,R,mgm-3,5,R,ugm-3,8,R,ugm-3,15,R,ugm-3
15-01-1990,04:00,0.1,R,mgm-3,4,R,ugm-3,6,R,ugm-3,11,R,ugm-3
15-01-1990,05:00,0.1,R,mgm-3,5,R,ugm-3,4,R,ugm-3,11,R,ugm-3
15-01-1990,06:00,0.1,R,mgm-3,9,R,ugm-3,11,R,ugm-3,25,R,ugm-3
15-01-1990,07:00,0.3,R,mgm-3,11,R,ugm-3,27,R,ugm-3,44,R,ugm-3
15-01-1990,08:00,0.7,R,mgm-3,34,R,ugm-3,38,R,ugm-3,90,R,ugm-3
15-01-1990,09:00,1.7,R,mgm-3,59,R,ugm-3,50,R,ugm-3,139,R,ugm-3
15-01-1990,10:00,1.3,R,mgm-3,59,R,ugm-3,53,R,ugm-3,143,R,ugm-3
15-01-1990,11:00,0.8,R,mgm-3,36,R,ugm-3,44,R,ugm-3,99,R,ugm-3
15-01-1990,12:00,0.8,R,mgm-3,28,R,ugm-3,36,R,ugm-3,78,R,ugm-3
15-01-1990,13:00,0.8,R,mgm-3,25,R,ugm-3,32,R,ugm-3,71,R,ugm-3
15-01-1990,14:00,0.8,R,mgm-3,29,R,ugm-3,32,R,ugm-3,76,R,ugm-3
15-01-1990,15:00,,,,,,,,,,,,
15-01-1990,16:00,0.7,R,mgm-3,31,R,ugm-3,34,R,ugm-3,82,R,ugm-3
15-01-1990,17:00,1.0,R,mgm-3,30,R,ugm-3,36,R,ugm-3,82,R,ugm-3
15-01-1990,18:00,1.0,R,mgm-3,24,R,ugm-3,32,R,ugm-3,69,R,ugm-3
15-01-1990,19:00,0.6,R,mgm-3,20,R,ugm-3,25,R,ugm-3,55,R,ugm-3
15-01-1990,20:00,0.3,R,mgm-3,13,R,ugm-3,17,R,ugm-3,36,R,ugm-3
15-01-1990,21:00,0.3,R,mgm-3,10,R,ugm-3,17,R,ugm-3,32,R,ugm-3
15-01-1990,22:00,0.5,R,mgm-3,11,R,ugm-3,17,R,ugm-3,34,R,ugm-3
15-01-1990,23:00,0.3,R,mgm-3,10,R,ugm-3,21,R,ugm-3,36,R,ugm-3
15-01-1990,24:00,0.3,R,mgm-3,8,R,ugm-3,19,R,ugm-3,31,R,ugm-3
16-01-1990,01:00,0.3,R,mgm-3,8,R,ugm-3,17,R,ugm-3,29,R,ugm-3
16-01-1990,02:00,0.1,R,mgm-3,5,R,ugm-3,8,R,ugm-3,15,R,ugm-3
16-01-1990,03:00,0.0,R,mgm-3,4,R,ugm-3,10,R,ugm-3,15,R,ugm-3
16-01-1990,04:00,0.0,R,mgm-3,4,R,ugm-3,11,R,ugm-3,17,R,ugm-3
16-01-1990,05:00,0.0,R,mgm-3,5,R,ugm-3,15,R,ugm-3,23,R,ugm-3
16-01-1990,06:00,0.1,R,mgm-3,6,R,ugm-3,23,R,ugm-3,32,R,ugm-3
16-01-1990,07:00,0.2,R,mgm-3,13,R,ugm-3,42,R,ugm-3,61,R,ugm-3
16-01-1990,08:00,0.8,R,mgm-3,30,R,ugm-3,61,R,ugm-3,107,R,ugm-3
16-01-1990,09:00,2.3,R,mgm-3,66,R,ugm-3,61,R,ugm-3,162,R,ugm-3
16-01-1990,10:00,3.6,R,mgm-3,195,R,ugm-3,71,R,ugm-3,369,R,ugm-3
16-01-1990,11:00,1.5,R,mgm-3,73,R,ugm-3,50,R,ugm-3,160,R,ugm-3
16-01-1990,12:00,0.7,R,mgm-3,23,R,ugm-3,32,R,ugm-3,67,R,ugm-3
16-01-1990,13:00,0.8,R,mgm-3,21,R,ugm-3,32,R,ugm-3,65,R,ugm-3
16-01-1990,14:00,0.7,R,mgm-3,18,R,ugm-3,34,R,ugm-3,61,R,ugm-3
16-01-1990,15:00,0.8,R,mgm-3,20,R,ugm-3,36,R,ugm-3,67,R,ugm-3
16-01-1990,16:00,0.8,R,mgm-3,19,R,ugm-3,34,R,ugm-3,63,R,ugm-3
16-01-1990,17:00,1.2,R,mgm-3,26,R,ugm-3,44,R,ugm-3,84,R,ugm-3
16-01-1990,18:00,1.2,R,mgm-3,24,R,ugm-3,38,R,ugm-3,74,R,ugm-3
16-01-1990,19:00,0.7,R,mgm-3,16,R,ugm-3,32,R,ugm-3,57,R,ugm-3
16-01-1990,20:00,0.3,R,mgm-3,9,R,ugm-3,25,R,ugm-3,38,R,ugm-3
16-01-1990,21:00,0.3,R,mgm-3,9,R,ugm-3,15,R,ugm-3,29,R,ugm-3
16-01-1990,22:00,0.2,R,mgm-3,8,R,ugm-3,15,R,ugm-3,27,R,ugm-3
16-01-1990,23:00,0.1,R,mgm-3,6,R,ugm-3,11,R,ugm-3,21,R,ugm-3
16-01-1990,24:00,0.1,R,mgm-3,4,R,ugm-3,10,R,ugm-3,15,R,ugm-3
17-01-1990,01:00,0.1,R,mgm-3,4,R,ugm-3,4,R,ugm-3,10,R,ugm-3
17-01-1990,02:00,0.1,R,mgm-3,4,R,ugm-3,6,R,ugm-3,11,R,ugm-3
17-01-1990,03:00,0.1,R,mgm-3,4,R,ugm-3,6,R,ugm-3,11,R,ugm-3
17-01-1990,04:00,0.1,R,mgm-3,4,R,ugm-3,6,R,ugm-3,11,R,ugm-3
17-01-1990,05:00,0.1,R,mgm-3,3,R,ugm-3,8,R,ugm-3,11,R,ugm-3